Location: Plainartige
(45.6866°N, 1.7993°E)
Time: 14:33:52
(UTC+00:00)

Cosmos 1500 - Pass Details

Date: 03 March 2021
Orbit: 499 x 517 km, 82.5° (Epoch: 11 April)

Event Time Altitude Azimuth Distance (km) Brightness Sun altitude
Rises 18:46:31 0° 179° (S) 2,579 6.7 -12.0°
Reaches altitude 10° 18:48:38 10° 176° (S) 1,700 5.7 -12.3°
Maximum altitude 18:52:19 62° 96° (E) 569 3.1 -13.0°
Drops below altitude 10° 18:56:01 10° 15° (NNE) 1,714 5.7 -13.6°
Sets 18:58:09 0° 12° (NNE) 2,604 6.7 -14.0°
